FW8022 Weather Reports


Display with metric or nautical units.
time (UTC)temp
F
wind
direction
speed
MPH
gust
MPH
rain 1hr
in
rain 24hr
in
rain mn
in
humidity
%
barometer
mb
20260905200534 64 223 2.0 8.0 0.00 0.00 0.00 79 1014.2
20260905200100 64 213 3.0 7.0 0.00 0.00 0.00 79 1014.4
20260905195537 64 280 3.0 8.0 0.00 0.00 0.00 79 1014.4
20260905195033 64 287 3.0 8.0 0.00 0.00 0.00 79 1014.3
20260905194551 64 220 2.0 8.0 0.00 0.00 0.00 79 1014.4
20260905194038 64 202 3.0 8.0 0.00 0.00 0.00 80 1014.4
20260905193532 64 284 2.0 7.0 0.00 0.00 0.00 81 1014.4
20260905193107 64 277 2.0 7.0 0.00 0.00 0.00 82 1014.5
20260905192537 63 299 3.0 7.0 0.00 0.00 0.00 81 1014.5
20260905192036 64 252 2.0 6.0 0.00 0.00 0.00 81 1014.4
20260905191558 63 234 2.0 6.0 0.00 0.00 0.00 81 1014.4
20260905191033 63 170 2.0 6.0 0.00 0.00 0.00 81 1014.4
20260905190536 63 227 2.0 5.0 0.00 0.00 0.00 82 1014.5
20260905190052 63 221 2.0 5.0 0.00 0.00 0.00 83 1014.4
20260905185543 63 228 2.0 6.0 0.00 0.00 0.00 83 1014.5
20260905185034 63 244 2.0 6.0 0.00 0.00 0.00 83 1014.5
20260905184609 63 227 3.0 7.0 0.00 0.00 0.00 83 1014.4
20260905184038 64 271 2.0 7.0 0.00 0.00 0.00 83 1014.3
20260905183534 63 273 2.0 7.0 0.00 0.00 0.00 85 1014.4
20260905183058 63 196 2.0 5.0 0.00 0.00 0.00 84 1014.4
20260905182533 63 223 1.0 5.0 0.00 0.00 0.00 85 1014.3
20260905182037 63 217 2.0 5.0 0.00 0.00 0.00 85 1014.3
20260905181551 63 234 2.0 5.0 0.00 0.00 0.00 85 1014.2
20260905181037 63 224 2.0 5.0 0.00 0.00 0.00 85 1014.3
20260905180536 63 221 1.0 5.0 0.00 0.00 0.00 84 1014.3
20260905180056 63 242 1.0 6.0 0.00 0.00 0.00 86 1014.3
20260905175533 62 213 3.0 6.0 0.00 0.00 0.00 85 1014.2
20260905175033 62 246 1.0 5.0 0.00 0.00 0.00 85 1014.1
20260905174556 62 212 2.0 5.0 0.00 0.00 0.00 85 1014.1
20260905174037 62 223 2.0 4.0 0.00 0.00 0.00 85 1014.2
20260905173537 62 245 2.0 4.0 0.00 0.00 0.00 85 1014.1
20260905173052 62 184 2.0 4.0 0.00 0.00 0.00 87 1014.0
20260905172536 62 236 2.0 6.0 0.00 0.00 0.00 86 1014.0
20260905172036 62 238 2.0 6.0 0.00 0.00 0.00 86 1014.0
20260905171551 62 283 2.0 6.0 0.00 0.00 0.00 86 1014.0
20260905171036 62 255 2.0 6.0 0.00 0.00 0.00 86 1014.0
20260905170538 62 205 2.0 4.0 0.00 0.00 0.00 87 1013.9
20260905170056 62 245 1.0 4.0 0.00 0.00 0.00 88 1013.8
20260905165537 61 239 1.0 4.0 0.00 0.00 0.00 89 1013.8
20260905165040 61 284 1.0 4.0 0.00 0.00 0.00 90 1013.7
20260905164555 61 279 1.0 4.0 0.00 0.00 0.00 91 1013.6
20260905164037 61 281 1.0 4.0 0.00 0.00 0.00 92 1013.7
20260905163536 60 261 1.0 4.0 0.00 0.00 0.00 92 1013.6
20260905163053 60 286 1.0 3.0 0.00 0.00 0.00 93 1013.6
20260905162538 60 202 0.0 2.0 0.00 0.00 0.00 93 1013.6
20260905162037 60 201 0.0 4.0 0.00 0.00 0.00 93 1013.5
20260905161551 59 201 1.0 4.0 0.00 0.00 0.00 93 1013.6
20260905161036 60 221 1.0 3.0 0.00 0.00 0.00 93 1013.5
20260905160537 59 221 2.0 3.0 0.00 0.00 0.00 93 1013.4
20260905160051 59 0 1.0 3.0 0.00 0.00 0.00 93 1013.4
20260905155539 59 0 1.0 3.0 0.00 0.00 0.00 93 1013.4
20260905155039 59 0 1.0 4.0 0.00 0.00 0.00 93 1013.4
20260905154600 59 161 1.0 4.0 0.00 0.00 0.00 93 1013.5
20260905154036 58 203 0.0 3.0 0.00 0.00 0.00 93 1013.5
20260905153536 58 194 0.0 3.0 0.00 0.00 0.00 93 1013.5
20260905153104 58 192 0.0 2.0 0.00 0.00 0.00 93 1013.5
20260905152536 58 192 1.0 2.0 0.00 0.00 0.00 93 1013.5
20260905152036 58 192 1.0 2.0 0.00 0.00 0.00 93 1013.5
20260905151558 58 192 1.0 2.0 0.00 0.00 0.00 93 1013.4
20260905151035 58 0 0.0 2.0 0.00 0.00 0.00 93 1013.4
20260905150534 58 0 1.0 3.0 0.00 0.00 0.00 93 1013.4
20260905150058 57 192 1.0 3.0 0.00 0.00 0.00 93 1013.3
20260905145537 57 192 1.0 3.0 0.00 0.00 0.00 93 1013.3
20260905145036 57 0 0.0 3.0 0.00 0.00 0.00 93 1013.3
20260905144553 57 192 2.0 3.0 0.00 0.00 0.00 93 1013.3
20260905144039 57 192 1.0 3.0 0.00 0.00 0.00 93 1013.3
20260905143536 57 192 1.0 3.0 0.00 0.00 0.00 93 1013.3
20260905143110 57 277 0.0 2.0 0.00 0.00 0.00 93 1013.2
20260905142533 57 277 0.0 1.0 0.00 0.00 0.00 93 1013.2
20260905142036 57 277 0.0 1.0 0.00 0.00 0.00 93 1013.1
20260905141551 57 0 0.0 2.0 0.00 0.00 0.00 93 1013.1
20260905141035 57 0 0.0 2.0 0.00 0.00 0.00 93 1013.1
20260905140536 57 277 0.0 2.0 0.00 0.00 0.00 93 1013.1
20260905140104 57 0 0.0 2.0 0.00 0.00 0.00 93 1013.0
20260905135536 57 0 0.0 2.0 0.00 0.00 0.00 93 1012.9
20260905135038 57 277 0.0 2.0 0.00 0.00 0.00 93 1012.9
20260905134555 58 0 0.0 1.0 0.00 0.00 0.00 93 1012.9
20260905134036 57 0 0.0 1.0 0.00 0.00 0.00 93 1012.9
20260905133536 57 0 0.0 1.0 0.00 0.00 0.00 93 1012.9
20260905133055 57 0 0.0 1.0 0.00 0.00 0.00 93 1012.9
20260905132535 57 0 0.0 1.0 0.00 0.00 0.00 93 1012.9
20260905132043 57 0 0.0 1.0 0.00 0.00 0.00 93 1012.8
20260905131555 58 0 0.0 2.0 0.00 0.00 0.00 93 1012.8
20260905131037 58 0 0.0 2.0 0.00 0.00 0.00 93 1012.9
20260905130537 58 0 0.0 2.0 0.00 0.00 0.00 93 1012.8
20260905130051 58 0 0.0 2.0 0.00 0.00 0.00 93 1012.9
20260905125536 58 0 0.0 2.0 0.00 0.00 0.00 93 1012.9
20260905125036 58 0 0.0 2.0 0.00 0.00 0.00 93 1013.0
20260905124550 58 277 0.0 2.0 0.00 0.00 0.00 93 1013.0
20260905124039 58 0 0.0 2.0 0.00 0.00 0.00 93 1013.0
20260905123545 58 0 0.0 2.0 0.00 0.00 0.00 93 1013.0
20260905123058 58 277 0.0 3.0 0.00 0.00 0.00 93 1013.0
20260905122538 58 0 1.0 3.0 0.00 0.00 0.00 93 1013.1
20260905122039 58 286 0.0 3.0 0.00 0.00 0.00 93 1013.1
20260905121553 58 286 1.0 3.0 0.00 0.00 0.00 93 1013.0
20260905121037 58 281 1.0 4.0 0.00 0.00 0.00 93 1013.1
20260905120540 58 302 1.0 4.0 0.00 0.00 0.00 93 1013.0
20260905120107 58 0 0.0 4.0 0.00 0.00 0.00 93 1013.0
20260905115537 58 300 1.0 4.0 0.00 0.00 0.00 93 1012.9
20260905115038 58 265 1.0 3.0 0.00 0.00 0.00 93 1013.0
20260905114550 58 288 2.0 4.0 0.00 0.00 0.00 93 1013.0
20260905114037 58 271 2.0 4.0 0.00 0.00 0.00 93 1013.0
20260905113538 58 298 1.0 6.0 0.00 0.00 0.00 93 1013.1
20260905113057 59 264 1.0 6.0 0.00 0.00 0.00 93 1013.1
20260905112538 58 244 1.0 3.0 0.00 0.00 0.00 93 1013.1
20260905112038 58 263 1.0 3.0 0.00 0.00 0.00 93 1013.1
20260905111637 58 0 1.0 3.0 0.00 0.00 0.00 93 1013.2
20260905111038 58 273 1.0 3.0 0.00 0.00 0.00 93 1013.1
20260905110537 58 262 0.0 2.0 0.00 0.00 0.00 93 1013.1
20260905110051 58 0 0.0 2.0 0.00 0.00 0.00 93 1013.1
20260905105536 58 262 1.0 2.0 0.00 0.00 0.00 93 1013.1
20260905105038 58 281 0.0 2.0 0.00 0.00 0.00 93 1013.1
20260905104548 58 281 0.0 3.0 0.00 0.00 0.00 93 1013.1
20260905104038 58 274 1.0 3.0 0.00 0.00 0.00 93 1013.1
20260905103538 58 281 1.0 3.0 0.00 0.00 0.00 93 1013.1
20260905103051 58 273 1.0 3.0 0.00 0.00 0.00 93 1013.2
20260905102538 59 261 1.0 3.0 0.00 0.00 0.00 93 1013.2
20260905102037 59 263 1.0 2.0 0.00 0.00 0.00 93 1013.3
20260905101600 59 0 1.0 2.0 0.00 0.00 0.00 93 1013.3
20260905101037 59 248 0.0 3.0 0.00 0.00 0.00 93 1013.4
20260905100537 59 248 1.0 3.0 0.00 0.00 0.00 93 1013.4
20260905100107 59 274 1.0 3.0 0.00 0.00 0.00 93 1013.4
20260905095537 59 297 1.0 3.0 0.00 0.01 0.00 93 1013.4
20260905095037 59 283 0.0 4.0 0.00 0.01 0.00 93 1013.4
20260905094552 59 245 0.0 4.0 0.00 0.01 0.00 93 1013.4
20260905094040 59 304 1.0 4.0 0.00 0.01 0.00 93 1013.4
20260905093540 59 263 1.0 4.0 0.00 0.01 0.00 93 1013.5
20260905093057 59 280 1.0 4.0 0.00 0.01 0.00 93 1013.5
20260905092538 59 325 1.0 4.0 0.00 0.01 0.00 93 1013.5
20260905092038 59 273 0.0 6.0 0.00 0.01 0.00 93 1013.6
20260905091604 59 268 1.0 6.0 0.00 0.01 0.00 93 1013.7
20260905091037 59 286 1.0 4.0 0.00 0.01 0.00 93 1013.9
20260905090539 59 0 0.0 7.0 0.00 0.01 0.00 93 1013.9
20260905090054 59 0 2.0 7.0 0.00 0.01 0.00 93 1013.8
20260905085541 59 244 1.0 4.0 0.00 0.01 0.00 93 1013.8
20260905085037 59 242 1.0 2.0 0.00 0.01 0.00 93 1013.8
20260905084553 59 0 1.0 3.0 0.00 0.01 0.00 93 1013.9
20260905084038 59 246 1.0 3.0 0.00 0.01 0.00 93 1013.9
20260905083538 59 226 1.0 3.0 0.00 0.01 0.00 93 1013.8
20260905083104 59 226 1.0 2.0 0.00 0.01 0.00 93 1013.8
20260905082537 59 240 1.0 3.0 0.00 0.01 0.00 93 1013.9
20260905082037 59 240 1.0 3.0 0.00 0.01 0.00 93 1013.9
20260905081552 59 0 1.0 3.0 0.00 0.01 0.00 93 1013.8
20260905081038 59 240 1.0 3.0 0.00 0.01 0.00 93 1013.8
20260905080538 59 235 1.0 3.0 0.00 0.01 0.00 93 1013.7
20260905075540 59 235 1.0 3.0 0.00 0.01 0.00 93 1013.7
20260905075037 59 235 1.0 3.0 0.00 0.01 0.00 93 1013.7
20260905074553 59 235 1.0 3.0 0.00 0.01 0.00 93 1013.8
20260905074038 59 235 1.0 3.0 0.00 0.01 0.00 93 1013.8
20260905073537 59 241 1.0 3.0 0.00 0.01 0.00 93 1013.7
20260905073053 59 238 2.0 3.0 0.00 0.01 0.00 93 1013.7
20260905072540 59 238 1.0 3.0 0.00 0.01 0.00 93 1013.6
20260905072037 59 237 1.0 3.0 0.00 0.01 0.00 93 1013.6
20260905071555 59 259 1.0 3.0 0.00 0.01 0.00 92 1013.7
20260905071038 59 259 1.0 3.0 0.00 0.01 0.00 92 1013.7
20260905070537 59 0 0.0 3.0 0.00 0.01 0.00 92 1013.6
20260905070101 59 259 1.0 3.0 0.00 0.01 0.00 92 1013.6
20260905065537 59 259 1.0 2.0 0.00 0.01 0.01 92 1013.6
20260905065037 59 259 0.0 2.0 0.00 0.01 0.01 92 1013.6
20260905064553 59 259 1.0 3.0 0.00 0.01 0.01 92 1013.6
20260905064037 59 259 1.0 3.0 0.00 0.01 0.01 92 1013.6
20260905063537 59 259 1.0 2.0 0.00 0.01 0.01 92 1013.6
20260905063100 59 254 1.0 3.0 0.00 0.01 0.01 92 1013.7
20260905062536 59 249 0.0 3.0 0.00 0.01 0.01 92 1013.7
20260905062037 59 0 1.0 3.0 0.00 0.01 0.01 92 1013.7
20260905061608 59 273 1.0 3.0 0.00 0.01 0.01 92 1013.6
20260905061036 59 255 1.0 3.0 0.00 0.01 0.01 92 1013.6
20260905060537 59 273 1.0 3.0 0.00 0.01 0.01 92 1013.7
20260905060057 59 0 1.0 3.0 0.00 0.01 0.01 92 1013.7
20260905055537 59 271 1.0 3.0 0.00 0.01 0.01 92 1013.7
20260905055037 59 276 1.0 2.0 0.00 0.01 0.01 92 1013.8
20260905054555 59 244 0.0 2.0 0.00 0.01 0.01 92 1013.8
20260905054037 59 227 1.0 2.0 0.00 0.01 0.01 92 1013.8
20260905053538 59 276 0.0 2.0 0.00 0.01 0.01 92 1013.8
20260905053058 59 276 1.0 2.0 0.00 0.01 0.01 92 1013.8
20260905052537 59 0 0.0 2.0 0.00 0.01 0.01 92 1013.9
20260905052037 59 276 1.0 2.0 0.00 0.01 0.01 92 1013.9
20260905051550 59 276 0.0 2.0 0.00 0.01 0.01 91 1014.0
20260905051037 59 276 0.0 3.0 0.00 0.01 0.01 91 1014.0
20260905050537 59 276 0.0 3.0 0.00 0.01 0.01 92 1014.1
20260905050100 59 277 0.0 3.0 0.00 0.01 0.01 92 1014.1
20260905045536 59 292 1.0 2.0 0.00 0.01 0.01 91 1014.0
20260905045037 59 269 1.0 6.0 0.00 0.01 0.01 91 1014.1
20260905044603 59 269 1.0 6.0 0.00 0.01 0.01 91 1014.0
20260905044036 59 290 2.0 6.0 0.00 0.01 0.01 91 1013.9
20260905043539 59 275 2.0 6.0 0.00 0.01 0.01 91 1013.9
20260905043051 59 272 1.0 4.0 0.00 0.01 0.01 91 1014.0
20260905042540 59 280 2.0 4.0 0.00 0.01 0.01 91 1013.9
20260905042037 59 278 0.0 3.0 0.00 0.01 0.01 91 1013.8
20260905041553 60 252 1.0 3.0 0.00 0.01 0.01 91 1013.8
20260905041037 60 238 1.0 6.0 0.00 0.01 0.01 91 1013.8
20260905040540 60 238 1.0 6.0 0.00 0.01 0.01 91 1013.8
20260905040059 60 275 1.0 6.0 0.00 0.01 0.01 91 1013.7
20260905035538 60 281 1.0 3.0 0.00 0.07 0.01 91 1013.8
20260905035038 60 0 1.0 3.0 0.00 0.07 0.01 90 1013.7
20260905034554 60 278 1.0 3.0 0.00 0.07 0.01 90 1013.7
20260905034037 60 244 0.0 3.0 0.00 0.07 0.01 90 1013.6
20260905033537 60 244 1.0 3.0 0.00 0.07 0.01 90 1013.6
20260905033053 60 259 1.0 4.0 0.00 0.07 0.01 90 1013.6
20260905032537 60 248 1.0 4.0 0.00 0.07 0.01 90 1013.5
20260905032038 60 277 1.0 5.0 0.00 0.07 0.01 90 1013.4
20260905031550 60 273 2.0 6.0 0.00 0.07 0.01 90 1013.4
20260905031037 60 280 2.0 6.0 0.00 0.07 0.01 89 1013.4
20260905030537 60 271 2.0 6.0 0.00 0.07 0.01 89 1013.4
20260905030123 60 275 2.0 6.0 0.00 0.07 0.01 89 1013.5
20260905025538 60 281 2.0 4.0 0.00 0.16 0.01 89 1013.4
20260905025038 60 284 1.0 3.0 0.00 0.16 0.01 89 1013.4
20260905024552 61 275 1.0 6.0 0.00 0.16 0.01 89 1013.4
20260905024037 61 271 2.0 6.0 0.00 0.16 0.01 88 1013.4
20260905023536 61 314 2.0 6.0 0.00 0.16 0.01 88 1013.4
20260905023049 61 288 0.0 7.0 0.00 0.16 0.01 88 1013.4
20260905022536 61 288 1.0 7.0 0.00 0.16 0.01 88 1013.5
20260905022038 61 304 1.0 6.0 0.00 0.16 0.01 88 1013.4
20260905021553 61 282 2.0 7.0 0.00 0.16 0.01 87 1013.4
20260905021037 61 285 3.0 7.0 0.00 0.16 0.01 87 1013.4
20260905020538 62 271 2.0 4.0 0.00 0.16 0.01 87 1013.4
20260905015537 62 272 2.0 7.0 0.00 0.22 0.01 87 1013.5
20260905015040 62 276 2.0 7.0 0.00 0.22 0.01 87 1013.4
20260905014556 62 287 2.0 7.0 0.00 0.22 0.01 87 1013.4
20260905014037 62 286 3.0 7.0 0.00 0.22 0.01 86 1013.6
20260905013536 63 274 2.0 7.0 0.00 0.22 0.01 87 1013.6
20260905013052 63 329 1.0 7.0 0.00 0.22 0.01 86 1013.6
20260905012540 63 290 3.0 7.0 0.00 0.22 0.01 86 1013.6
20260905012041 63 286 2.0 6.0 0.00 0.22 0.01 86 1013.5
20260905011553 63 309 1.0 8.0 0.00 0.22 0.01 86 1013.5
20260905011037 63 294 2.0 8.0 0.00 0.22 0.01 86 1013.5
20260905010537 63 247 3.0 8.0 0.00 0.22 0.01 86 1013.6
20260905010057 63 333 2.0 7.0 0.00 0.22 0.01 86 1013.5
20260905005537 63 308 2.0 7.0 0.00 0.22 0.01 86 1013.5
20260905005038 63 309 3.0 7.0 0.00 0.22 0.01 85 1013.4
20260905004612 63 294 2.0 7.0 0.00 0.22 0.01 85 1013.4
20260905004037 63 302 3.0 7.0 0.00 0.22 0.01 85 1013.4
20260905003537 63 294 2.0 7.0 0.00 0.22 0.01 85 1013.4
20260905003055 64 325 1.0 7.0 0.00 0.22 0.01 85 1013.4
20260905002536 64 316 2.0 7.0 0.00 0.22 0.01 85 1013.4
20260905002036 63 269 3.0 7.0 0.00 0.22 0.01 84 1013.4
20260905001550 64 276 3.0 7.0 0.00 0.22 0.01 83 1013.4
20260905001041 64 297 2.0 7.0 0.00 0.22 0.01 84 1013.4
20260905000538 64 345 3.0 7.0 0.00 0.22 0.01 83 1013.4
20260905000059 64 248 2.0 7.0 0.00 0.22 0.01 83 1013.4
20260904235537 64 289 2.0 7.0 0.00 0.22 0.01 83 1013.4
20260904235037 64 309 2.0 5.0 0.00 0.22 0.01 82 1013.4
20260904234556 64 321 2.0 6.0 0.00 0.22 0.01 83 1013.4
20260904234036 64 242 3.0 8.0 0.00 0.22 0.01 83 1013.4
20260904233538 64 270 2.0 8.0 0.00 0.22 0.01 83 1013.5
20260904233057 64 275 3.0 8.0 0.00 0.22 0.01 82 1013.5
20260904232537 65 254 2.0 7.0 0.00 0.22 0.01 83 1013.5
20260904232038 64 281 2.0 7.0 0.00 0.22 0.01 83 1013.5
20260904231552 64 319 2.0 7.0 0.00 0.22 0.01 82 1013.6
20260904231037 65 265 3.0 7.0 0.00 0.22 0.01 81 1013.6
20260904230537 65 215 2.0 7.0 0.00 0.22 0.01 82 1013.6
20260904225536 64 258 2.0 6.0 0.00 0.22 0.01 82 1013.8
20260904225036 65 257 3.0 7.0 0.00 0.22 0.01 83 1013.8
20260904224555 65 240 2.0 7.0 0.00 0.22 0.01 81 1013.9
20260904224038 64 275 3.0 8.0 0.00 0.22 0.01 83 1013.9
20260904223539 64 297 2.0 8.0 0.00 0.22 0.01 82 1014.0
20260904223056 65 271 3.0 8.0 0.00 0.22 0.01 82 1014.0
20260904222538 65 313 2.0 8.0 0.00 0.22 0.01 81 1014.0
20260904222041 65 259 2.0 7.0 0.00 0.22 0.01 81 1014.1
20260904221558 65 235 3.0 8.0 0.00 0.22 0.01 81 1014.0
20260904221036 65 234 2.0 8.0 0.00 0.22 0.01 82 1014.0
20260904220536 65 266 3.0 8.0 0.00 0.22 0.01 82 1014.0
20260904220054 65 221 2.0 6.0 0.00 0.22 0.01 83 1014.0
20260904215537 65 281 2.0 6.0 0.00 0.22 0.01 83 1014.0
20260904215037 65 226 2.0 5.0 0.00 0.22 0.01 83 1014.0
20260904214604 65 212 2.0 6.0 0.00 0.22 0.01 83 1014.1
20260904214037 65 227 2.0 6.0 0.00 0.22 0.01 83 1014.1
20260904213538 65 213 3.0 6.0 0.00 0.22 0.01 82 1014.1
20260904213056 65 180 3.0 7.0 0.00 0.22 0.01 83 1014.1
20260904212539 64 178 2.0 7.0 0.00 0.22 0.01 82 1014.2
20260904212036 65 241 3.0 7.0 0.00 0.22 0.01 82 1014.1
20260904211558 64 286 2.0 5.0 0.00 0.22 0.01 83 1014.1
20260904211040 64 202 2.0 6.0 0.00 0.22 0.01 82 1014.1
20260904210535 65 237 3.0 6.0 0.00 0.22 0.01 82 1014.1
20260904210055 65 298 3.0 7.0 0.00 0.22 0.01 82 1014.1
20260904205539 65 236 2.0 7.0 0.00 0.22 0.01 82 1014.1
20260904205036 64 244 2.0 6.0 0.00 0.22 0.01 82 1014.2
20260904204550 65 223 2.0 8.0 0.00 0.22 0.01 82 1014.1
20260904204038 64 241 3.0 8.0 0.00 0.22 0.01 82 1014.1
20260904203540 64 293 2.0 5.0 0.00 0.22 0.01 82 1014.2
20260904203101 65 198 2.0 5.0 0.00 0.22 0.01 81 1014.1
20260904202537 65 214 2.0 4.0 0.00 0.22 0.01 83 1014.1
20260904202037 64 184 2.0 7.0 0.00 0.22 0.01 84 1014.0
20260904201555 64 240 2.0 7.0 0.00 0.22 0.01 84 1013.9
20260904201037 64 281 1.0 6.0 0.00 0.22 0.01 84 1013.9